| time (UTC) | temp F | wind direction | speed knots | gust knots | rain 1hr in | rain 24hr in | rain mn in | humidity % | barometer mb |
| 20260504235037 | 76 | 240 | 0.9 | 0.9 | 0.00 | 0.00 | 0.00 | 45 | 1008.6 |
| 20260504234534 | 77 | 258 | 2.6 | 2.6 | 0.00 | 0.00 | 0.00 | 45 | 1008.7 |
| 20260504234031 | 77 | 258 | 0.9 | 0.9 | 0.00 | 0.00 | 0.00 | 46 | 1009.0 |
| 20260504233526 | 77 | 241 | 0.9 | 1.7 | 0.00 | 0.00 | 0.00 | 45 | 1008.6 |
| 20260504233023 | 78 | 255 | 1.7 | 1.7 | 0.00 | 0.00 | 0.00 | 44 | 1008.8 |
| 20260504232520 | 78 | 244 | 0.9 | 1.7 | 0.00 | 0.00 | 0.00 | 44 | 1008.7 |
| 20260504232018 | 78 | 253 | 2.6 | 2.6 | 0.00 | 0.00 | 0.00 | 43 | 1008.7 |
| 20260504231514 | 78 | 263 | 6.1 | 7.0 | 0.00 | 0.00 | 0.00 | 43 | 1008.8 |
| 20260504231010 | 78 | 248 | 2.6 | 4.3 | 0.00 | 0.00 | 0.00 | 43 | 1009.0 |
| 20260504230507 | 78 | 255 | 2.6 | 2.6 | 0.00 | 0.00 | 0.00 | 43 | 1008.7 |
| 20260504230006 | 79 | 251 | 4.3 | 5.2 | 0.00 | 0.00 | 0.00 | 42 | 1008.9 |
| 20260504225502 | 79 | 236 | 2.6 | 2.6 | 0.00 | 0.00 | 0.00 | 43 | 1008.8 |
| 20260504225000 | 79 | 245 | 0.9 | 0.9 | 0.00 | 0.00 | 0.00 | 43 | 1008.7 |
| 20260504224456 | 79 | 253 | 6.1 | 7.0 | 0.00 | 0.00 | 0.00 | 41 | 1008.7 |
| 20260504223953 | 79 | 254 | 1.7 | 1.7 | 0.00 | 0.00 | 0.00 | 41 | 1008.7 |
| 20260504223449 | 80 | 249 | 3.5 | 5.2 | 0.00 | 0.00 | 0.00 | 41 | 1008.6 |
| 20260504222945 | 80 | 242 | 0.9 | 0.9 | 0.00 | 0.00 | 0.00 | 41 | 1008.9 |
| 20260504222443 | 80 | 254 | 1.7 | 1.7 | 0.00 | 0.00 | 0.00 | 41 | 1008.6 |
| 20260504221940 | 80 | 242 | 1.7 | 1.7 | 0.00 | 0.00 | 0.00 | 41 | 1008.7 |
| 20260504221437 | 80 | 255 | 2.6 | 2.6 | 0.00 | 0.00 | 0.00 | 41 | 1009.0 |
| 20260504220934 | 80 | 234 | 0.9 | 1.7 | 0.00 | 0.00 | 0.00 | 42 | 1009.0 |
| 20260504220430 | 80 | 250 | 3.5 | 4.3 | 0.00 | 0.00 | 0.00 | 41 | 1008.7 |
| 20260504215928 | 80 | 248 | 3.5 | 5.2 | 0.00 | 0.00 | 0.00 | 41 | 1008.6 |
| 20260504215425 | 80 | 242 | 2.6 | 2.6 | 0.00 | 0.00 | 0.00 | 42 | 1008.8 |
| 20260504214921 | 80 | 252 | 5.2 | 6.1 | 0.00 | 0.00 | 0.00 | 41 | 1008.8 |
| 20260504214418 | 80 | 261 | 4.3 | 4.3 | 0.00 | 0.00 | 0.00 | 41 | 1008.7 |
| 20260504213914 | 80 | 241 | 1.7 | 1.7 | 0.00 | 0.00 | 0.00 | 43 | 1008.6 |
| 20260504213410 | 80 | 242 | 1.7 | 1.7 | 0.00 | 0.00 | 0.00 | 41 | 1008.8 |
| 20260504212908 | 80 | 249 | 1.7 | 2.6 | 0.00 | 0.00 | 0.00 | 42 | 1008.8 |
| 20260504212403 | 80 | 245 | 5.2 | 6.1 | 0.00 | 0.00 | 0.00 | 39 | 1008.9 |
| 20260504211901 | 80 | 237 | 2.6 | 2.6 | 0.00 | 0.00 | 0.00 | 42 | 1008.6 |
| 20260504211357 | 80 | 262 | 2.6 | 2.6 | 0.00 | 0.00 | 0.00 | 42 | 1008.9 |
| 20260504210855 | 80 | 250 | 0.9 | 0.9 | 0.00 | 0.00 | 0.00 | 44 | 1008.9 |
| 20260504210351 | 80 | 238 | 0.9 | 1.7 | 0.00 | 0.00 | 0.00 | 43 | 1009.0 |
| 20260504205849 | 80 | 271 | 5.2 | 6.1 | 0.00 | 0.00 | 0.00 | 42 | 1008.7 |
| 20260504205346 | 80 | 273 | 3.5 | 4.3 | 0.00 | 0.00 | 0.00 | 42 | 1009.0 |
| 20260504204844 | 80 | 246 | 4.3 | 5.2 | 0.00 | 0.00 | 0.00 | 40 | 1009.0 |
| 20260504204343 | 80 | 269 | 3.5 | 5.2 | 0.00 | 0.00 | 0.00 | 41 | 1009.0 |
| 20260504203842 | 80 | 246 | 4.3 | 5.2 | 0.00 | 0.00 | 0.00 | 41 | 1009.4 |
| 20260504203338 | 80 | 252 | 3.5 | 4.3 | 0.00 | 0.00 | 0.00 | 41 | 1009.2 |
| 20260504202834 | 81 | 248 | 4.3 | 5.2 | 0.00 | 0.00 | 0.00 | 38 | 1009.4 |
| 20260504202331 | 81 | 275 | 4.3 | 5.2 | 0.00 | 0.00 | 0.00 | 41 | 1009.5 |
| 20260504201828 | 81 | 248 | 1.7 | 2.6 | 0.00 | 0.00 | 0.00 | 41 | 1009.5 |
| 20260504201325 | 80 | 236 | 3.5 | 5.2 | 0.00 | 0.00 | 0.00 | 41 | 1009.6 |
| 20260504200822 | 81 | 254 | 4.3 | 5.2 | 0.00 | 0.00 | 0.00 | 40 | 1009.7 |
| 20260504200319 | 81 | 253 | 2.6 | 2.6 | 0.00 | 0.00 | 0.00 | 42 | 1010.0 |
| 20260504195815 | 81 | 259 | 3.5 | 5.2 | 0.00 | 0.00 | 0.00 | 39 | 1009.9 |
| 20260504195311 | 81 | 259 | 5.2 | 6.1 | 0.00 | 0.00 | 0.00 | 39 | 1010.0 |
| 20260504194808 | 82 | 268 | 3.5 | 4.3 | 0.00 | 0.00 | 0.00 | 39 | 1009.9 |
| 20260504194304 | 81 | 222 | 1.7 | 1.7 | 0.00 | 0.00 | 0.00 | 41 | 1010.1 |
| 20260504193800 | 82 | 210 | 2.6 | 2.6 | 0.00 | 0.00 | 0.00 | 41 | 1010.3 |
| 20260504193258 | 81 | 224 | 0.9 | 1.7 | 0.00 | 0.00 | 0.00 | 40 | 1010.4 |
| 20260504192756 | 81 | 248 | 2.6 | 4.3 | 0.00 | 0.00 | 0.00 | 41 | 1010.3 |
| 20260504192254 | 81 | 234 | 0.9 | 1.7 | 0.00 | 0.00 | 0.00 | 43 | 1010.2 |
| 20260504191753 | 81 | 190 | 3.5 | 4.3 | 0.00 | 0.00 | 0.00 | 43 | 1010.6 |
| 20260504191249 | 81 | 260 | 4.3 | 5.2 | 0.00 | 0.00 | 0.00 | 43 | 1010.4 |
| 20260504190744 | 81 | 281 | 3.5 | 4.3 | 0.00 | 0.00 | 0.00 | 42 | 1010.7 |
| 20260504190241 | 82 | 244 | 4.3 | 5.2 | 0.00 | 0.00 | 0.00 | 41 | 1010.6 |
| 20260504185738 | 81 | 255 | 3.5 | 4.3 | 0.00 | 0.00 | 0.00 | 42 | 1011.0 |
| 20260504185235 | 81 | 258 | 4.3 | 6.1 | 0.00 | 0.00 | 0.00 | 41 | 1011.0 |
| 20260504184731 | 81 | 250 | 2.6 | 2.6 | 0.00 | 0.00 | 0.00 | 42 | 1010.8 |
| 20260504184227 | 80 | 255 | 2.6 | 2.6 | 0.00 | 0.00 | 0.00 | 43 | 1010.7 |
| 20260504183723 | 80 | 252 | 3.5 | 4.3 | 0.00 | 0.00 | 0.00 | 42 | 1011.0 |
| 20260504183220 | 80 | 251 | 3.5 | 5.2 | 0.00 | 0.00 | 0.00 | 42 | 1011.1 |
| 20260504182718 | 80 | 264 | 1.7 | 1.7 | 0.00 | 0.00 | 0.00 | 43 | 1011.2 |
| 20260504182215 | 80 | 255 | 3.5 | 4.3 | 0.00 | 0.00 | 0.00 | 42 | 1011.0 |
| 20260504181712 | 80 | 247 | 1.7 | 1.7 | 0.00 | 0.00 | 0.00 | 43 | 1010.9 |
| 20260504181210 | 80 | 250 | 1.7 | 2.6 | 0.00 | 0.00 | 0.00 | 44 | 1011.3 |
| 20260504180709 | 81 | 250 | 3.5 | 4.3 | 0.00 | 0.00 | 0.00 | 42 | 1011.1 |
| 20260504180207 | 80 | 250 | 2.6 | 2.6 | 0.00 | 0.00 | 0.00 | 45 | 1011.1 |
| 20260504175704 | 80 | 253 | 3.5 | 5.2 | 0.00 | 0.00 | 0.00 | 45 | 1011.3 |
| 20260504175200 | 79 | 221 | 2.6 | 2.6 | 0.00 | 0.00 | 0.00 | 45 | 1011.5 |
| 20260504174659 | 78 | 257 | 6.1 | 7.0 | 0.00 | 0.00 | 0.00 | 44 | 1011.3 |
| 20260504174155 | 80 | 259 | 2.6 | 2.6 | 0.00 | 0.00 | 0.00 | 44 | 1011.6 |
| 20260504173652 | 79 | 245 | 4.3 | 5.2 | 0.00 | 0.00 | 0.00 | 47 | 1011.7 |
| 20260504173150 | 79 | 271 | 6.1 | 7.8 | 0.00 | 0.00 | 0.00 | 46 | 1011.4 |
| 20260504172646 | 77 | 240 | 1.7 | 1.7 | 0.00 | 0.00 | 0.00 | 49 | 1011.8 |
| 20260504172143 | 78 | 255 | 4.3 | 5.2 | 0.00 | 0.00 | 0.00 | 49 | 1011.8 |
| 20260504171639 | 77 | 247 | 3.5 | 5.2 | 0.00 | 0.00 | 0.00 | 50 | 1011.8 |
| 20260504171137 | 77 | 236 | 3.5 | 4.3 | 0.00 | 0.00 | 0.00 | 48 | 1011.9 |
| 20260504170633 | 78 | 265 | 3.5 | 4.3 | 0.00 | 0.00 | 0.00 | 49 | 1012.0 |
| 20260504170131 | 77 | 262 | 2.6 | 4.3 | 0.00 | 0.00 | 0.00 | 49 | 1012.1 |
| 20260504151016 | 74 | 249 | 4.3 | 5.2 | 0.00 | 0.00 | 0.00 | 56 | 1013.0 |
| 20260504150513 | 74 | 240 | 1.7 | 1.7 | 0.00 | 0.00 | 0.00 | 57 | 1012.9 |
| 20260504140939 | 70 | 252 | 0.9 | 1.7 | 0.00 | 0.00 | 0.00 | 64 | 1013.3 |
| 20260504140435 | 70 | 229 | 0.9 | 0.9 | 0.00 | 0.00 | 0.00 | 67 | 1013.3 |
| 20260504130400 | 66 | 253 | 1.7 | 1.7 | 0.00 | 0.00 | 0.00 | 71 | 1013.1 |
| 20260504110248 | 60 | 243 | 0.0 | 0.0 | 0.00 | 0.00 | 0.00 | 76 | 1012.1 |
| 20260504100211 | 60 | 244 | 0.0 | 0.0 | 0.00 | 0.00 | 0.00 | 76 | 1012.4 |
| 20260504090133 | 61 | 216 | 0.9 | 0.9 | 0.00 | 0.00 | 0.00 | 72 | 1012.4 |
| 20260504081604 | 61 | 242 | 0.0 | 0.9 | 0.00 | 0.00 | 0.00 | 70 | 1012.8 |
| 20260504081100 | 61 | 237 | 0.0 | 0.0 | 0.00 | 0.00 | 0.00 | 69 | 1012.9 |
| 20260504080557 | 61 | 232 | 0.9 | 0.9 | 0.00 | 0.00 | 0.00 | 69 | 1012.8 |
| 20260504050409 | 60 | 236 | 0.0 | 0.0 | 0.00 | 0.00 | 0.00 | 65 | 1014.2 |
| 20260504045906 | 60 | 230 | 0.0 | 0.9 | 0.00 | 0.00 | 0.00 | 66 | 1014.3 |
| 20260504045401 | 60 | 230 | 0.0 | 0.9 | 0.00 | 0.00 | 0.00 | 65 | 1014.1 |
| 20260504044859 | 60 | 236 | 0.0 | 0.0 | 0.00 | 0.00 | 0.00 | 65 | 1014.3 |
| 20260504044356 | 60 | 236 | 0.0 | 0.0 | 0.00 | 0.00 | 0.00 | 65 | 1014.3 |
| 20260504043854 | 60 | 244 | 0.0 | 0.0 | 0.00 | 0.00 | 0.00 | 66 | 1014.4 |
| 20260504043350 | 60 | 245 | 0.0 | 0.0 | 0.00 | 0.00 | 0.00 | 66 | 1014.3 |
| 20260504042848 | 60 | 230 | 0.0 | 0.0 | 0.00 | 0.00 | 0.00 | 66 | 1014.2 |
| 20260504042343 | 60 | 230 | 0.0 | 0.0 | 0.00 | 0.00 | 0.00 | 65 | 1014.3 |
| 20260504041840 | 60 | 230 | 0.0 | 0.0 | 0.00 | 0.00 | 0.00 | 65 | 1014.3 |
| 20260504041336 | 60 | 230 | 0.0 | 0.9 | 0.00 | 0.00 | 0.00 | 65 | 1014.3 |
| 20260504040832 | 60 | 231 | 0.0 | 0.0 | 0.00 | 0.00 | 0.00 | 65 | 1014.4 |
| 20260504040330 | 60 | 230 | 0.0 | 0.0 | 0.00 | 0.00 | 0.00 | 65 | 1014.2 |
| 20260504035826 | 60 | 242 | 0.0 | 0.0 | 0.00 | 0.00 | 0.00 | 66 | 1014.4 |
| 20260504035324 | 60 | 242 | 0.0 | 0.0 | 0.00 | 0.00 | 0.00 | 66 | 1014.4 |
| 20260504034820 | 60 | 242 | 0.0 | 0.9 | 0.00 | 0.00 | 0.00 | 67 | 1014.4 |
| 20260504034318 | 60 | 234 | 0.0 | 0.9 | 0.00 | 0.00 | 0.00 | 66 | 1014.5 |
| 20260504033815 | 60 | 253 | 0.0 | 0.0 | 0.00 | 0.00 | 0.00 | 66 | 1014.5 |
| 20260504033313 | 60 | 254 | 0.0 | 0.0 | 0.00 | 0.00 | 0.00 | 66 | 1014.6 |
| 20260504032809 | 59 | 231 | 0.0 | 0.0 | 0.00 | 0.00 | 0.00 | 67 | 1014.6 |
| 20260504032306 | 59 | 231 | 0.0 | 0.0 | 0.00 | 0.00 | 0.00 | 68 | 1014.7 |
| 20260504031803 | 59 | 231 | 0.0 | 0.0 | 0.00 | 0.00 | 0.00 | 68 | 1014.6 |
| 20260504031301 | 59 | 253 | 0.0 | 0.0 | 0.00 | 0.00 | 0.00 | 67 | 1014.5 |
| 20260504030756 | 59 | 253 | 0.0 | 0.0 | 0.00 | 0.00 | 0.00 | 67 | 1015.0 |
| 20260504030254 | 59 | 253 | 0.0 | 0.0 | 0.00 | 0.00 | 0.00 | 68 | 1014.8 |
| 20260504025750 | 59 | 253 | 0.0 | 0.0 | 0.00 | 0.00 | 0.00 | 67 | 1014.8 |
| 20260504025247 | 59 | 253 | 0.0 | 0.0 | 0.00 | 0.00 | 0.00 | 66 | 1014.6 |
| 20260504024744 | 59 | 253 | 0.0 | 0.0 | 0.00 | 0.00 | 0.00 | 67 | 1014.9 |
| 20260504024240 | 59 | 253 | 0.0 | 0.0 | 0.00 | 0.00 | 0.00 | 68 | 1014.6 |
| 20260504023738 | 59 | 253 | 0.0 | 0.0 | 0.00 | 0.00 | 0.00 | 66 | 1015.0 |
| 20260504023233 | 59 | 253 | 0.0 | 0.0 | 0.00 | 0.00 | 0.00 | 67 | 1014.7 |
| 20260504022729 | 59 | 253 | 0.0 | 0.0 | 0.00 | 0.00 | 0.00 | 68 | 1014.7 |
| 20260504022226 | 59 | 253 | 0.0 | 0.0 | 0.00 | 0.00 | 0.00 | 71 | 1014.8 |
| 20260504021723 | 59 | 253 | 0.0 | 0.0 | 0.00 | 0.00 | 0.00 | 69 | 1014.5 |
| 20260504021220 | 59 | 253 | 0.0 | 0.0 | 0.00 | 0.00 | 0.00 | 70 | 1014.4 |
| 20260504020717 | 59 | 253 | 0.0 | 0.0 | 0.00 | 0.00 | 0.00 | 70 | 1014.7 |
| 20260504020214 | 60 | 253 | 0.0 | 0.0 | 0.00 | 0.00 | 0.00 | 68 | 1014.5 |
| 20260504015710 | 60 | 253 | 0.0 | 0.0 | 0.00 | 0.00 | 0.00 | 64 | 1014.5 |
| 20260504015207 | 60 | 253 | 0.0 | 0.0 | 0.00 | 0.00 | 0.00 | 67 | 1014.2 |
| 20260504014702 | 60 | 253 | 0.0 | 0.0 | 0.00 | 0.00 | 0.00 | 62 | 1014.5 |
| 20260504014159 | 60 | 253 | 0.0 | 0.0 | 0.00 | 0.00 | 0.00 | 63 | 1014.4 |
| 20260504013657 | 60 | 253 | 0.0 | 0.0 | 0.00 | 0.00 | 0.00 | 64 | 1014.4 |
| 20260504013154 | 61 | 253 | 0.0 | 0.0 | 0.00 | 0.00 | 0.00 | 64 | 1014.4 |
| 20260504012651 | 61 | 253 | 0.0 | 0.0 | 0.00 | 0.00 | 0.00 | 67 | 1014.3 |
| 20260504012148 | 61 | 253 | 0.0 | 0.0 | 0.00 | 0.00 | 0.00 | 63 | 1014.4 |
| 20260504011645 | 62 | 253 | 0.0 | 0.0 | 0.00 | 0.00 | 0.00 | 63 | 1014.2 |
| 20260504011142 | 62 | 254 | 0.0 | 0.0 | 0.00 | 0.00 | 0.00 | 63 | 1014.4 |
| 20260504010638 | 63 | 254 | 0.0 | 0.0 | 0.00 | 0.00 | 0.00 | 59 | 1014.4 |
| 20260504010134 | 63 | 254 | 0.0 | 0.0 | 0.00 | 0.00 | 0.00 | 56 | 1014.2 |
| 20260504005631 | 64 | 254 | 0.0 | 0.0 | 0.00 | 0.00 | 0.00 | 55 | 1014.3 |
| 20260504005127 | 64 | 254 | 0.0 | 0.0 | 0.00 | 0.00 | 0.00 | 53 | 1014.1 |
| 20260504004626 | 65 | 254 | 0.0 | 0.0 | 0.00 | 0.00 | 0.00 | 52 | 1014.2 |
| 20260504004123 | 66 | 254 | 0.0 | 0.0 | 0.00 | 0.00 | 0.00 | 55 | 1014.5 |
| 20260504003619 | 67 | 254 | 0.0 | 0.0 | 0.00 | 0.00 | 0.00 | 51 | 1014.3 |
| 20260504003115 | 67 | 254 | 0.0 | 0.0 | 0.00 | 0.00 | 0.00 | 48 | 1014.5 |
| 20260504002612 | 68 | 254 | 0.0 | 0.0 | 0.00 | 0.00 | 0.00 | 47 | 1014.3 |
| 20260504002110 | 68 | 254 | 0.0 | 0.0 | 0.00 | 0.00 | 0.00 | 46 | 1014.3 |
| 20260504001608 | 68 | 254 | 0.0 | 0.0 | 0.00 | 0.00 | 0.00 | 46 | 1014.6 |
| 20260504001103 | 69 | 254 | 0.0 | 0.0 | 0.00 | 0.00 | 0.00 | 45 | 1014.3 |
| 20260504000601 | 69 | 253 | 0.0 | 0.0 | 0.00 | 0.00 | 0.00 | 45 | 1014.4 |
| 20260504000058 | 70 | 253 | 0.0 | 0.0 | 0.00 | 0.00 | 0.00 | 45 | 1014.4 |
| 20260503235556 | 71 | 254 | 0.0 | 0.0 | 0.00 | 0.00 | 0.00 | 45 | 1014.3 |